Temp
-13 -13 -13 -13 -13 -14 -14 -14 -14 -14 -14 -14 -14 -15 -15 -15 -14 -14 -14 -14 -14 -14 -14 -14 -14 -14 -14 -14 -14 -14 -14 -14 -14 -14 -14 -14 -14 -14 -14 -14 -14 -14
-13 -13 -14 -13 -14 -14 -14 -14 -14 -14 -14 -14 -15 -15 -15 -15 -15 -15 -15 -15 -15 -15 -15 -14 -14 -14 -14 -14 -14 -14 -14 -14 -14 -14 -14 -14 -14 -14 -14 -14 -14 -14
-13 -14 -14 -14 -14 -14 -14 -14 -14 -14 -14 -15 -15 -15 -15 -15 -15 -15 -15 -15 -15 -15 -15 -15 -15 -14 -14 -14 -14 -14 -14 -14 -14 -14 -14 -14 -14 -14 -14 -14 -14 -14
-14 -14 -14 -14 -14 -14 -14 -14 -14 -14 -14 -15 -15 -15 -15 -15 -15 -15 -15 -15 -15 -15 -15 -15 -15 -15 -15 -15 -15 -14 -14 -14 -14 -14 -14 -14 -14 -14 -14 -14 -14 -14
-14 -14 -14 -14 -14 -14 -14 -14 -14 -14 -15 -15 -15 -15 -15 -15 -15 -15 -15 -15 -15 -15 -15 -15 -15 -15 -15 -15 -15 -15 -15 -14 -14 -14 -14 -14 -14 -14 -14 -14 -14 -14
-14 -14 -14 -14 -14 -14 -14 -14 -14 -15 -15 -15 -15 -15 -15 -15 -15 -15 -15 -15 -15 -15 -15 -15 -15 -15 -15 -15 -15 -15 -15 -14 -14 -15 -14 -14 -14 -14 -14 -14 -14 -14
-14 -14 -14 -14 -15 -15 -15 -15 -15 -15 -15 -15 -15 -15 -15 -15 -15 -15 -15 -15 -15 -15 -15 -15 -15 -15 -15 -15 -15 -15 -15 -15 -15 -15 -15 -14 -14 -14 -14 -14 -14 -14
-14 -14 -14 -15 -15 -15 -15 -15 -15 -15 -15 -16 -16 -16 -15 -15 -15 -15 -15 -15 -15 -15 -15 -15 -15 -15 -15 -15 -15 -15 -15 -15 -15 -15 -15 -15 -15 -14 -14 -14 -14 -14
-14 -14 -15 -15 -15 -15 -15 -15 -15 -16 -16 -16 -16 -16 -16 -16 -16 -16 -15 -15 -15 -15 -15 -15 -15 -15 -15 -15 -15 -15 -15 -15 -15 -15 -15 -15 -15 -15 -15 -14 -14 -15
-14 -14 -15 -15 -15 -15 -15 -15 -16 -16 -16 -16 -16 -16 -16 -16 -16 -16 -16 -15 -15 -15 -15 -15 -15 -15 -15 -15 -15 -15 -15 -15 -15 -15 -15 -15 -15 -15 -15 -15 -15 -15
-14 -15 -15 -15 -15 -15 -15 -15 -16 -16 -16 -16 -16 -16 -16 -16 -16 -16 -16 -15 -15 -15 -15 -15 -15 -16 -16 -16 -16 -15 -15 -15 -15 -15 -15 -15 -15 -15 -15 -15 -15 -15
-15 -15 -15 -15 -15 -15 -15 -15 -15 -16 -16 -16 -16 -16 -16 -16 -16 -16 -16 -16 -15 -15 -15 -16 -16 -16 -16 -16 -16 -16 -16 -15 -15 -15 -15 -15 -15 -15 -15 -15 -15 -15
-15 -15 -15 -15 -15 -15 -15 -15 -15 -16 -16 -16 -16 -16 -16 -16 -16 -16 -16 -15 -15 -16 -16 -16 -16 -16 -16 -16 -16 -16 -16 -16 -16 -16 -15 -16 -16 -15 -15 -15 -15 -15
-15 -15 -15 -15 -15 -15 -15 -15 -16 -16 -16 -16 -16 -16 -16 -16 -16 -16 -16 -15 -15 -15 -16 -16 -16 -16 -16 -16 -16 -16 -16 -16 -16 -16 -16 -16 -16 -16 -16 -16 -16 -16
-15 -15 -15 -15 -15 -15 -15 -16 -16 -16 -16 -16 -16 -16 -16 -16 -16 -15 -15 -15 -15 -15 -16 -16 -16 -16 -16 -16 -16 -16 -16 -16 -16 -16 -16 -16 -16 -16 -16 -16 -16 -16
-15 -16 -15 -15 -15 -15 -16 -16 -16 -16 -16 -16 -16 -16 -16 -16 -15 -15 -15 -15 -15 -15 -15 -16 -16 -16 -16 -16 -16 -16 -16 -16 -16 -16 -16 -16 -16 -16 -16 -16 -16 -16
-15 -16 -15 -15 -15 -15 -16 -16 -16 -16 -15 -15 -15 -16 -16 -16 -15 -15 -15 -15 -15 -15 -15 -15 -16 -16 -16 -16 -16 -16 -16 -16 -16 -16 -16 -17 -17 -17 -17 -17 -17 -17
-16 -16 -16 -16 -16 -16 -16 -16 -16 -16 -15 -15 -15 -15 -16 -16 -15 -15 -15 -15 -15 -15 -15 -16 -16 -16 -16 -16 -16 -16 -16 -16 -16 -16 -16 -17 -17 -17 -17 -17 -17 -17
-16 -16 -16 -16 -16 -16 -16 -16 -16 -16 -15 -15 -16 -16 -16 -16 -15 -15 -15 -15 -15 -15 -15 -16 -16 -16 -16 -16 -16 -16 -16 -16 -16 -16 -16 -16 -17 -17 -17 -17 -17 -17
-16 -16 -16 -16 -16 -16 -16 -16 -16 -16 -16 -16 -16 -16 -16 -16 -16 -15 -15 -15 -15 -15 -15 -16 -16 -16 -16 -16 -16 -16 -16 -16 -16 -16 -16 -16 -16 -16 -16 -16 -16 -16
-16 -16 -16 -16 -16 -16 -16 -16 -16 -16 -16 -16 -16 -16 -16 -16 -16 -16 -16 -15 -15 -15 -15 -16 -16 -16 -16 -16 -16 -16 -16 -16 -16 -16 -16 -16 -16 -16 -16 -16 -16 -16
-16 -16 -16 -16 -16 -16 -16 -16 -16 -16 -16 -16 -16 -16 -16 -16 -16 -16 -16 -16 -16 -15 -15 -16 -16 -16 -16 -16 -16 -16 -16 -16 -16 -16 -16 -16 -16 -16 -16 -17 -17 -17
-16 -16 -16 -16 -16 -16 -16 -16 -16 -16 -16 -16 -16 -16 -16 -16 -16 -16 -16 -16 -16 -16 -16 -16 -16 -16 -16 -16 -16 -16 -16 -16 -16 -16 -16 -17 -17 -17 -17 -17 -17 -17
-16 -16 -16 -17 -17 -17 -17 -16 -16 -16 -16 -16 -16 -16 -16 -16 -16 -16 -16 -16 -16 -16 -16 -16 -16 -16 -16 -16 -16 -16 -16 -16 -16 -17 -17 -17 -17 -17 -17 -17 -17 -17
-16 -17 -17 -17 -17 -17 -17 -17 -16 -16 -16 -16 -16 -16 -16 -16 -16 -16 -16 -16 -16 -16 -16 -16 -16 -16 -16 -16 -16 -16 -16 -16 -16 -17 -17 -17 -17 -17 -17 -17 -17 -17
-17 -17 -17 -17 -17 -17 -17 -17 -17 -17 -17 -17 -16 -16 -16 -16 -16 -16 -16 -16 -16 -17 -17 -16 -16 -16 -16 -16 -17 -17 -17 -17 -17 -17 -17 -17 -17 -17 -17 -17 -17 -17
Height
5766 5767 5769 5771 5773 5774 5776 5777 5778 5780 5782 5784 5785 5787 5788 5790 5792 5793 5793 5793 5794 5794 5795 5796 5796 5797 5798 5798 5799 5799 5799 5800 5800 5801 5801 5802 5803 5803 5804 5805 5805 5805
5765 5766 5768 5769 5771 5773 5774 5775 5777 5778 5779 5781 5782 5784 5786 5788 5789 5791 5791 5791 5792 5792 5793 5794 5794 5795 5795 5796 5797 5797 5798 5798 5798 5799 5799 5800 5801 5801 5802 5803 5803 5803
5763 5765 5766 5768 5769 5771 5773 5773 5774 5775 5777 5778 5780 5782 5784 5786 5787 5788 5789 5789 5790 5790 5791 5791 5792 5793 5793 5794 5795 5795 5796 5796 5797 5797 5797 5798 5799 5799 5800 5801 5801 5801
5761 5763 5764 5766 5767 5769 5770 5771 5772 5773 5775 5776 5778 5780 5782 5784 5785 5786 5787 5787 5788 5788 5788 5789 5790 5790 5791 5791 5792 5793 5793 5794 5795 5795 5796 5796 5797 5797 5798 5798 5799 5799
5759 5760 5762 5763 5765 5766 5767 5769 5770 5771 5772 5774 5776 5777 5779 5781 5783 5784 5785 5785 5786 5786 5786 5787 5788 5788 5789 5789 5790 5791 5791 5792 5792 5793 5794 5794 5794 5795 5795 5796 5796 5796
5756 5757 5759 5761 5763 5764 5765 5767 5768 5769 5771 5772 5774 5775 5777 5779 5781 5782 5783 5784 5784 5784 5785 5785 5786 5786 5786 5787 5788 5788 5789 5790 5790 5791 5791 5792 5792 5792 5793 5793 5793 5793
5753 5754 5757 5759 5761 5762 5764 5765 5766 5767 5769 5770 5772 5774 5775 5777 5778 5780 5781 5782 5783 5783 5783 5783 5784 5784 5784 5785 5785 5786 5786 5787 5788 5789 5789 5790 5790 5790 5790 5790 5790 5791
5751 5753 5755 5757 5759 5760 5761 5763 5764 5765 5767 5769 5771 5772 5774 5775 5776 5777 5779 5780 5781 5781 5781 5781 5782 5782 5782 5782 5783 5783 5784 5785 5785 5786 5787 5788 5788 5788 5788 5788 5788 5788
5749 5751 5753 5755 5756 5758 5759 5761 5762 5764 5766 5768 5769 5771 5772 5773 5774 5775 5776 5777 5778 5779 5779 5779 5779 5780 5780 5780 5780 5781 5781 5782 5783 5784 5784 5785 5786 5786 5786 5786 5786 5786
5748 5749 5751 5753 5754 5756 5757 5759 5761 5763 5765 5767 5768 5769 5770 5771 5772 5772 5773 5774 5775 5776 5777 5777 5777 5777 5778 5778 5778 5778 5778 5779 5780 5781 5782 5782 5783 5783 5784 5784 5784 5784
5747 5749 5750 5752 5753 5754 5755 5757 5759 5761 5763 5765 5766 5767 5768 5768 5769 5769 5770 5771 5772 5773 5774 5774 5775 5775 5775 5775 5775 5776 5776 5777 5777 5778 5779 5780 5780 5781 5781 5782 5782 5782
5745 5747 5748 5750 5751 5752 5754 5756 5758 5760 5761 5762 5763 5764 5765 5766 5766 5767 5767 5768 5769 5770 5771 5771 5772 5772 5772 5773 5773 5773 5773 5774 5775 5775 5776 5777 5778 5778 5779 5779 5779 5779
5744 5745 5747 5748 5749 5751 5752 5754 5756 5758 5758 5759 5760 5761 5762 5763 5764 5764 5765 5765 5766 5767 5767 5768 5769 5769 5769 5770 5770 5771 5771 5771 5772 5772 5773 5774 5775 5775 5776 5776 5776 5776
5743 5744 5745 5746 5748 5749 5751 5753 5754 5755 5756 5756 5757 5758 5759 5760 5761 5761 5762 5762 5763 5764 5764 5765 5766 5766 5766 5767 5768 5768 5768 5769 5769 5770 5770 5771 5771 5772 5772 5773 5773 5773
5742 5742 5743 5745 5746 5748 5750 5751 5752 5752 5753 5754 5754 5755 5756 5757 5758 5758 5759 5759 5760 5761 5761 5762 5763 5763 5764 5764 5765 5765 5766 5766 5766 5767 5767 5767 5768 5768 5769 5769 5769 5770
5740 5741 5742 5743 5744 5745 5747 5748 5749 5750 5750 5751 5751 5752 5753 5754 5754 5755 5756 5756 5756 5757 5758 5759 5760 5761 5761 5762 5762 5763 5763 5763 5764 5764 5764 5764 5764 5765 5765 5766 5766 5766
5738 5739 5740 5741 5742 5743 5745 5746 5747 5748 5748 5748 5749 5750 5750 5751 5751 5752 5752 5752 5753 5754 5755 5756 5757 5758 5758 5759 5760 5760 5760 5760 5760 5761 5761 5761 5761 5761 5762 5762 5762 5763
5737 5737 5737 5739 5740 5741 5742 5743 5744 5745 5745 5745 5745 5747 5747 5748 5749 5749 5749 5750 5750 5750 5751 5753 5754 5755 5756 5756 5757 5757 5757 5757 5757 5758 5757 5757 5758 5758 5758 5759 5759 5759
5734 5735 5735 5737 5738 5738 5740 5740 5741 5741 5742 5742 5742 5744 5744 5745 5746 5746 5747 5748 5747 5747 5748 5750 5751 5752 5753 5753 5754 5754 5754 5754 5755 5755 5755 5755 5755 5755 5755 5756 5756 5756
5732 5732 5733 5734 5735 5736 5737 5738 5738 5738 5739 5739 5740 5741 5742 5743 5743 5744 5744 5745 5745 5745 5746 5748 5749 5749 5750 5750 5751 5751 5751 5752 5752 5752 5752 5752 5752 5752 5753 5753 5753 5753
5729 5730 5730 5731 5732 5733 5733 5734 5735 5735 5736 5737 5737 5738 5739 5740 5741 5741 5742 5743 5743 5744 5744 5745 5746 5746 5747 5747 5748 5748 5748 5749 5749 5750 5750 5750 5750 5750 5750 5750 5750 5750
5726 5727 5727 5728 5729 5730 5730 5731 5732 5732 5733 5734 5735 5735 5736 5737 5738 5739 5740 5740 5741 5741 5742 5742 5743 5743 5744 5744 5745 5745 5746 5746 5747 5747 5747 5747 5746 5747 5747 5747 5746 5746
5723 5723 5724 5725 5726 5727 5727 5728 5729 5730 5730 5731 5732 5733 5734 5735 5736 5736 5737 5738 5738 5739 5739 5740 5740 5740 5741 5741 5742 5742 5743 5743 5743 5743 5743 5743 5743 5743 5743 5743 5743 5742
5719 5720 5721 5722 5723 5724 5725 5725 5726 5727 5728 5729 5729 5730 5731 5732 5733 5734 5734 5735 5735 5736 5736 5736 5737 5737 5737 5738 5738 5739 5739 5739 5739 5739 5739 5739 5739 5739 5738 5738 5738 5738
5716 5717 5718 5719 5720 5721 5722 5722 5723 5724 5725 5726 5726 5727 5728 5729 5730 5730 5731 5732 5732 5732 5733 5733 5733 5733 5733 5734 5734 5734 5735 5735 5735 5735 5735 5734 5734 5734 5733 5733 5733 5732
5713 5714 5715 5716 5717 5718 5718 5719 5720 5720 5721 5722 5723 5723 5724 5725 5726 5726 5727 5728 5728 5728 5729 5729 5729 5730 5730 5730 5730 5730 5730 5731 5730 5730 5730 5729 5729 5729 5728 5728 5727 5727
Wind_Speed
29 29 29 28 27 26 24 24 25 24 23 22 22 23 24 24 23 22 21 21 21 21 20 21 21 20 20 20 20 20 20 20 19 19 18 17 16 16 16 15 15 16
31 29 28 28 28 26 23 23 24 24 24 24 23 23 24 24 23 22 22 22 21 21 20 20 20 20 19 19 19 20 20 21 20 20 20 19 18 18 18 17 17 17
31 30 28 28 28 25 21 21 24 25 26 25 23 23 24 24 24 23 22 22 21 21 20 19 19 19 19 19 19 19 19 20 20 20 20 20 20 20 19 19 18 18
29 30 28 28 27 24 20 22 26 26 25 23 22 23 23 23 24 23 22 22 21 20 19 19 19 19 20 20 19 19 19 19 19 19 20 20 20 20 20 20 19 17
28 29 27 27 26 24 23 25 26 25 22 21 21 23 23 22 21 21 21 20 20 19 18 18 18 19 20 21 20 20 19 18 17 18 18 19 19 19 19 19 18 17
27 26 24 24 25 25 24 24 23 22 20 20 21 22 21 19 18 19 19 18 18 19 19 18 18 18 19 20 20 20 19 18 17 17 17 17 18 18 18 18 17 17
23 22 21 20 21 23 23 22 21 20 20 20 21 21 19 17 18 19 19 18 18 19 19 19 18 18 18 19 19 19 19 19 18 17 17 16 17 17 17 16 16 16
23 22 20 19 19 21 21 21 20 20 20 20 21 20 18 18 19 20 20 19 19 19 19 19 18 18 19 19 20 20 20 20 19 18 17 17 17 16 16 15 15 15
24 21 20 19 19 19 19 18 18 17 18 20 21 21 20 19 20 21 20 19 19 19 19 18 18 17 19 20 21 22 21 21 20 18 18 17 17 16 15 15 15 15
22 20 20 19 19 19 17 16 16 17 18 20 21 22 22 22 21 21 21 20 20 20 20 19 18 18 19 20 21 23 23 23 22 20 19 18 18 17 17 17 16 16
21 20 20 19 18 17 16 16 16 17 19 20 22 23 23 23 22 22 23 23 22 22 23 23 22 21 21 20 21 23 24 24 23 22 20 19 19 19 19 19 18 19
20 20 20 18 17 16 16 16 16 17 19 20 22 23 23 23 22 23 25 25 23 23 24 24 23 23 22 21 21 22 23 24 24 23 21 20 20 20 20 20 20 21
19 20 19 17 16 17 17 17 17 18 20 22 23 23 23 23 24 25 27 26 24 22 22 22 21 21 22 21 21 22 23 24 24 23 22 21 20 20 20 21 21 22
19 19 18 17 17 17 17 17 17 19 21 22 23 24 23 24 25 26 28 28 26 24 22 20 19 19 20 21 21 21 22 23 24 24 24 23 23 22 22 22 23 23
19 19 18 18 19 19 18 18 18 20 21 22 23 24 23 23 23 25 27 28 27 26 24 21 19 19 20 21 21 22 22 23 25 26 26 26 26 25 25 25 24 24
21 20 20 21 21 21 20 20 21 21 22 23 24 24 23 22 22 23 25 28 28 27 25 23 21 20 20 21 21 22 22 23 24 25 26 26 26 26 25 25 25 25
22 21 22 22 22 21 21 21 23 23 24 26 27 26 23 21 20 20 21 25 28 28 27 26 24 21 20 20 21 21 22 22 23 24 24 25 25 25 25 25 26 26
23 23 24 23 22 22 21 22 22 23 25 28 28 25 21 18 17 17 18 20 24 28 30 28 25 23 21 21 22 22 23 23 23 24 24 24 24 25 26 27 27 27
25 25 25 24 23 22 22 22 22 22 24 25 21 18 16 16 16 15 15 16 18 23 27 28 25 23 22 23 24 24 24 25 25 26 25 25 25 26 27 28 29 29
26 25 25 25 24 22 21 20 20 20 20 19 16 14 15 15 15 14 15 15 15 16 19 22 22 23 24 26 26 25 25 25 26 26 26 26 27 28 29 29 30 31
26 25 25 24 23 22 21 21 20 20 19 19 18 17 17 16 16 17 17 18 17 16 17 19 21 24 25 26 26 25 24 24 25 26 26 27 28 29 30 30 31 32
26 25 25 24 23 23 22 22 21 21 21 21 21 21 21 20 20 20 20 19 19 19 19 19 21 23 24 24 24 23 23 24 26 27 28 28 29 29 30 31 32 34
27 27 26 25 24 24 24 23 23 22 22 22 22 22 22 21 21 21 20 19 19 19 20 21 22 23 23 24 24 24 25 27 28 30 30 30 30 31 32 33 34 35
27 26 26 26 26 26 25 25 24 24 24 24 24 23 22 22 21 21 20 20 20 20 21 22 23 24 25 26 27 27 29 30 31 32 33 33 34 35 35 36 36 37
25 25 26 27 27 27 27 26 25 25 26 25 25 24 24 23 23 22 22 22 23 23 23 24 24 25 26 27 28 30 31 32 33 34 35 37 38 39 39 40 39 39
25 26 27 28 29 29 28 28 27 27 27 26 26 25 25 25 24 24 24 25 25 26 26 27 28 28 29 30 32 33 34 35 36 37 38 40 41 42 43 43 43 43
Wind_Direction
230 230 234 237 234 228 229 231 229 229 232 237 242 244 246 245 243 243 244 245 246 248 249 251 253 253 250 247 243 242 242 243 244 243 243 244 246 249 251 254 256 258
231 232 235 238 233 226 227 230 229 230 235 239 243 245 246 245 245 245 245 245 246 246 246 247 249 250 247 243 240 239 240 243 245 246 247 248 251 254 256 259 261 264
229 229 233 237 231 224 228 231 229 232 236 239 242 244 244 244 246 247 245 244 244 244 243 243 245 245 243 240 237 237 239 242 245 248 250 252 255 258 260 261 262 263
228 230 234 235 228 224 232 234 231 233 235 239 243 243 244 245 248 248 245 242 241 240 240 241 242 243 242 241 239 239 240 244 248 251 255 257 258 259 260 260 259 256
233 235 234 232 229 232 237 234 232 235 236 239 242 244 247 248 247 246 242 240 238 237 238 240 241 241 241 241 242 243 244 248 253 257 259 261 260 259 257 255 253 252
236 230 224 227 233 237 238 235 235 238 238 239 242 245 247 244 242 240 238 236 235 237 239 239 239 240 240 241 242 244 247 251 255 259 262 264 262 258 254 251 249 248
223 216 218 227 233 234 235 237 239 239 238 238 240 240 239 237 236 236 234 233 234 238 240 240 240 241 242 244 244 246 248 251 255 258 261 263 262 257 252 250 249 249
213 214 220 224 228 229 232 235 238 238 237 237 236 234 235 236 236 237 238 237 236 238 239 239 240 242 244 247 247 248 249 251 253 255 258 261 260 258 255 253 253 253
217 220 220 221 225 226 226 230 235 237 236 235 233 234 237 240 241 242 243 242 239 238 237 237 239 242 246 248 249 250 250 251 253 254 257 259 259 259 258 258 258 258
220 222 221 224 224 219 218 222 227 230 231 233 234 237 240 243 244 245 246 246 244 240 239 240 244 248 250 251 251 250 250 251 253 254 257 258 258 258 257 258 259 260
217 217 217 218 216 214 216 218 221 225 229 233 236 238 241 243 244 246 248 248 246 245 245 247 250 254 256 256 254 252 251 251 253 255 257 258 258 258 258 259 260 260
213 212 211 213 215 214 215 216 219 223 228 233 238 241 244 246 246 245 247 248 248 249 251 251 253 255 257 258 256 253 251 251 252 255 256 257 256 258 260 262 263 264
214 212 212 216 219 217 216 217 219 223 229 235 239 243 245 246 245 244 244 246 249 253 257 256 253 253 254 255 254 252 251 250 251 253 254 253 254 256 260 264 266 267
216 216 218 223 225 223 222 222 225 230 234 238 242 246 247 247 244 243 243 246 250 255 259 258 255 252 252 252 250 248 248 248 249 251 251 251 252 255 259 262 264 265
216 219 224 231 233 233 233 232 234 237 240 243 245 247 248 248 246 244 245 249 252 255 256 255 254 253 251 250 249 247 246 245 246 248 250 251 253 255 258 260 261 261
221 226 231 236 238 240 242 241 241 243 245 245 244 245 249 252 251 249 248 250 252 253 251 250 251 251 249 249 250 249 247 246 245 246 247 248 250 253 256 258 259 258
226 232 236 239 242 245 247 248 248 249 248 246 245 247 250 251 249 249 251 252 253 251 247 244 245 245 246 249 253 253 251 249 247 246 246 248 250 252 254 256 257 257
230 234 237 239 242 245 249 251 252 251 250 251 251 248 247 244 242 246 252 256 256 251 244 240 240 241 246 253 257 257 255 252 250 249 249 250 252 254 256 257 258 259
232 236 238 240 242 245 249 253 254 250 249 254 256 248 241 238 237 240 246 253 259 254 244 239 238 242 251 258 260 260 260 258 255 253 253 254 256 257 259 260 261 261
234 239 241 242 244 245 244 245 247 247 247 253 255 245 238 236 236 239 244 250 255 253 245 241 241 247 254 260 262 263 263 261 260 259 259 260 261 261 262 263 263 264
236 239 241 241 240 238 235 235 239 244 247 249 250 246 244 245 247 250 251 252 253 252 250 249 250 253 256 259 262 263 263 263 264 265 266 266 265 264 264 263 264 264
236 239 239 237 235 233 234 236 239 242 244 246 248 249 250 251 253 254 254 254 253 252 252 253 254 256 257 258 260 262 263 265 266 267 268 268 268 268 267 266 265 265
237 237 235 234 234 234 237 239 241 242 244 246 248 249 251 252 254 256 257 255 253 253 253 253 253 255 256 257 259 262 265 267 267 267 267 268 269 270 270 270 269 268
236 234 233 233 235 236 239 242 244 246 246 245 246 248 250 253 256 259 260 260 261 263 264 261 258 257 257 258 260 263 266 268 268 268 268 268 269 271 271 271 270 269
234 234 234 235 236 238 241 245 246 247 246 245 246 248 250 253 256 259 261 262 264 266 266 265 263 262 262 262 263 265 267 268 269 269 269 270 271 272 272 272 270 269
237 237 238 238 240 242 245 247 247 246 246 246 247 248 249 251 254 257 261 263 265 265 265 265 265 265 265 265 266 267 268 269 269 270 270 271 272 273 274 274 273 272